User: anonymous   Login
Location: Mason Neck State Park
(38.6428°N, 77.1981°W)
Time: 10:41:44
(UTC-04:00)
Language:

Cosmos 1400 Rocket - Orbit

View from above orbital plane
View from above orbital plane
View from above satellite
View from above satellite

Ground track
Ground track

The orbit data is extracted from the following two-line orbital elements,

1 13403U 82079B   15111.15910687  .00005407  00000-0  37316-3 0  9992
2 13403 081.1689 091.1769 0035142 355.1202 004.9672 15.05123215778119
Epoch (UTC): 21 April 2015 03:49:06
Eccentricity: 0.0035142
inclination: 81.1689°
perigee height: 527 km
apogee height: 575 km
right ascension of ascending node: 91.1769°
argument of perigee: 355.1202°
revolutions per day: 15.05123215
mean anomaly at epoch: 4.9672°
orbit number at epoch: 77811

The dashed part of the orbit path shows where the satellite is in the earth's shadow,  

DLR